Location: *
(28.3744°N, 81.5492°W)
Time: 14:29:33
(UTC+00:00)

Cosmos 2237 Rocket - Pass Details

Date: 15 June 2025
Orbit: 833 x 850 km, 71.0° (Epoch: 15 July)

Event Time Altitude Azimuth Distance (km) Brightness Sun altitude
Rises 01:45:15 0° 357° (N) 3,405 6.0 -15.7°
Reaches altitude 10° 01:48:15 10° 12° (NNE) 2,470 5.0 -16.3°
Maximum altitude 01:52:37 22° 63° (ENE) 1,752 3.6 -17.0°
Enters shadow 01:54:26 19° 89° (E) 1,897 3.6 -17.3°
